User: anonymous   Login
Location: Bondula
(6.3703°N, 10.6756°W)
Time: 22:46:23
(UTC+00:00)
Language:

Atlas Centaur 2 - Orbit

View from above orbital plane
View from above orbital plane
View from above satellite
View from above satellite

Ground track
Ground track

The orbit data is extracted from the following two-line orbital elements,

1   694U 63047A   19341.09421082  .00000210  00000-0  12611-4 0  9991
2   694  30.3585 235.4107 0586207 307.9405  46.9595 14.02531987809558
Epoch (UTC): 07 December 2019 02:15:39
Eccentricity: 0.0586207
inclination: 30.3585°
perigee height: 459 km
apogee height: 1311 km
right ascension of ascending node: 235.4107°
argument of perigee: 307.9405°
revolutions per day: 14.02531987
mean anomaly at epoch: 46.9595°
orbit number at epoch: 80955

The dashed part of the orbit path shows where the satellite is in the earth's shadow,  

DLR